Location: *
(46.1333°S, 161.2167°W)
Time: 04:13:02
(UTC+00:00)

Ariane Rocket - Pass Details

Date: 15 July 2020
Orbit: 759 x 771 km, 98.7° (Epoch: 10 August)

Event Time Altitude Azimuth Distance (km) Brightness Sun altitude
Rises 17:33:05 0° 38° (NE) 3,223 7.4 -8.3°
Reaches altitude 10° 17:35:29 10° 45° (NE) 2,306 6.8 -7.9°
Maximum altitude 17:40:12 40° 113° (ESE) 1,128 4.3 -7.2°
Drops below altitude 10° 17:44:59 10° 181° (S) 2,339 5.3 -6.4°
Sets 17:47:25 0° 188° (S) 3,274 5.9 -6.0°
